Find Starlink 3562

NORAD ID: 51861 Int'l Des: 2022-022 Owner: SPXS Country: US Constellation: starlink operational
LEOCIRCULAR

当前视图

正在加载3D地球...

About Starlink 3562

Starlink 3562 (NORAD 51861) is a starlink constellation satellite (v1.5) launched Mar 3, 2022 by SPXS of US. It operates in LEO, CIRCULAR orbit with a mass of 297.00 kg.

关于 Starlink 3562

正在加载描述...

即将过境

Passes for default location (London). Set your location on the main map for personalized predictions.

高度历史

Loading altitude history...

两行轨道根数

1 51861U 22022K 26171.45211845 .00000372 00000-0 41487-4 0 9996
2 51861 53.1578 267.6850 0001089 94.0017 266.1099 15.08832342238546
Epoch: Jun 20, 2026 • Age: 29 hours

当前状态

高度 540.2 km
速度 7.60 km/s
星下点 24.41°N, 89.29°W
发射日期 Mar 3, 2022
运行时间 4.3 years
类型 internet

技术详情

分类 Payload
质量 297.00 kg
干质量 275.00 kg
总质量 297.00 kg
长度 0.20 m
直径 2.80 m
跨度 9.00 m
形状 Box + pan
制造商 SPXS
平台类型 Starlink
阶段状态 In Orbit
所有者/国家 SPXS/US

Most Searched